Location: Maiden
(35.5760°N, 81.2120°W)
Time: 03:41:17
(UTC-04:00)

Vanguard 2 - Pass Details

Date: 13 August 2020
Orbit: 553 x 2937 km, 32.9° (Epoch: 20 September)

Event Time Altitude Azimuth Distance (km) Brightness Sun altitude
Rises 18:33:20 0° 216° (SW) 6,259 12.6 19.6°
Reaches altitude 10° 18:37:35 10° 210° (SSW) 5,460 12.3 18.7°
Maximum altitude 18:53:05 42° 146° (SSE) 3,738 10.9 15.6°
Drops below altitude 10° 19:08:02 10° 84° (E) 5,304 11.2 12.6°
Sets 19:12:01 0° 78° (ENE) 6,076 11.5 11.8°
